QPF
0.00 0.00 0.00 0.00 0.00 0.01 0.01 0.02 0.02 0.03 0.04 0.04 0.05 0.07 0.08 0.11 0.15 0.16 0.20 0.32 0.36 0.31 0.27 0.33 0.26 0.18 0.09 0.03 0.01 0.00 0.00 0.00 0.00 0.00 0.00 0.00 0.01 0.00 0.00 0.00 0.00 0.00 0.00 0.00
0.00 0.00 0.00 0.00 0.00 0.00 0.01 0.01 0.02 0.02 0.03 0.05 0.09 0.11 0.10 0.11 0.17 0.18 0.19 0.25 0.20 0.17 0.17 0.22 0.25 0.15 0.08 0.05 0.02 0.00 0.00 0.00 0.00 0.00 0.00 0.00 0.00 0.00 0.00 0.00 0.00 0.00 0.00 0.00
0.00 0.00 0.00 0.00 0.00 0.00 0.01 0.01 0.01 0.01 0.02 0.04 0.06 0.09 0.09 0.10 0.16 0.22 0.20 0.17 0.14 0.12 0.12 0.12 0.13 0.16 0.17 0.12 0.05 0.01 0.01 0.01 0.01 0.01 0.00 0.00 0.00 0.00 0.00 0.00 0.00 0.00 0.00 0.00
0.00 0.00 0.00 0.00 0.00 0.00 0.01 0.01 0.01 0.01 0.03 0.04 0.04 0.06 0.06 0.09 0.12 0.11 0.08 0.08 0.09 0.08 0.08 0.10 0.12 0.08 0.14 0.16 0.09 0.05 0.03 0.02 0.01 0.01 0.00 0.00 0.00 0.00 0.00 0.00 0.00 0.00 0.00 0.00
0.00 0.00 0.00 0.00 0.00 0.01 0.01 0.01 0.01 0.02 0.03 0.05 0.03 0.04 0.04 0.03 0.04 0.02 0.02 0.08 0.08 0.06 0.05 0.05 0.06 0.04 0.04 0.05 0.06 0.05 0.04 0.01 0.01 0.01 0.00 0.00 0.00 0.00 0.00 0.00 0.00 0.00 0.00 0.00
0.00 0.01 0.01 0.00 0.00 0.01 0.01 0.01 0.02 0.03 0.05 0.06 0.03 0.04 0.04 0.02 0.01 0.01 0.01 0.03 0.04 0.03 0.03 0.03 0.03 0.02 0.01 0.01 0.01 0.01 0.01 0.01 0.01 0.00 0.00 0.00 0.00 0.00 0.00 0.00 0.00 0.00 0.00 0.00
0.01 0.02 0.02 0.01 0.01 0.00 0.01 0.01 0.03 0.05 0.08 0.09 0.04 0.05 0.02 0.01 0.00 0.00 0.00 0.00 0.01 0.02 0.01 0.01 0.01 0.01 0.00 0.00 0.01 0.00 0.00 0.00 0.00 0.00 0.00 0.00 0.00 0.00 0.00 0.00 0.00 0.00 0.00 0.00
0.02 0.02 0.02 0.02 0.01 0.01 0.01 0.01 0.03 0.04 0.07 0.10 0.12 0.12 0.02 0.00 0.00 0.00 0.00 0.01 0.00 0.00 0.00 0.00 0.00 0.00 0.00 0.00 0.00 0.00 0.00 0.00 0.00 0.00 0.00 0.00 0.00 0.00 0.00 0.00 0.00 0.00 0.00 0.00
0.02 0.02 0.02 0.01 0.01 0.01 0.01 0.01 0.02 0.03 0.06 0.12 0.17 0.12 0.02 0.00 0.00 0.00 0.00 0.00 0.00 0.00 0.00 0.00 0.00 0.00 0.00 0.00 0.00 0.00 0.00 0.00 0.00 0.00 0.00 0.00 0.00 0.00 0.00 0.00 0.00 0.00 0.00 0.00
0.02 0.01 0.01 0.01 0.01 0.01 0.01 0.01 0.02 0.03 0.05 0.11 0.15 0.13 0.05 0.01 0.00 0.00 0.00 0.00 0.00 0.00 0.00 0.00 0.00 0.00 0.00 0.00 0.00 0.00 0.00 0.00 0.00 0.00 0.00 0.00 0.00 0.00 0.00 0.00 0.00 0.00 0.00 0.00
0.01 0.00 0.01 0.01 0.02 0.02 0.03 0.02 0.03 0.03 0.03 0.06 0.09 0.08 0.03 0.02 0.01 0.01 0.00 0.00 0.00 0.00 0.00 0.00 0.00 0.00 0.00 0.00 0.00 0.00 0.00 0.00 0.00 0.00 0.00 0.00 0.00 0.00 0.00 0.00 0.00 0.00 0.00 0.00
0.01 0.00 0.01 0.01 0.02 0.03 0.03 0.03 0.03 0.03 0.02 0.03 0.06 0.05 0.03 0.02 0.02 0.01 0.00 0.00 0.00 0.00 0.00 0.00 0.00 0.00 0.00 0.00 0.00 0.00 0.00 0.00 0.00 0.00 0.00 0.00 0.00 0.00 0.00 0.00 0.00 0.00 0.00 0.00
0.00 0.00 0.00 0.01 0.02 0.02 0.02 0.02 0.02 0.02 0.01 0.02 0.04 0.04 0.03 0.02 0.02 0.01 0.00 0.00 0.00 0.00 0.00 0.00 0.00 0.00 0.00 0.00 0.00 0.00 0.00 0.00 0.00 0.00 0.00 0.00 0.00 0.00 0.00 0.00 0.00 0.00 0.00 0.00
0.01 0.00 0.00 0.00 0.01 0.02 0.01 0.02 0.02 0.02 0.01 0.02 0.02 0.03 0.03 0.02 0.01 0.01 0.00 0.00 0.00 0.00 0.00 0.00 0.00 0.00 0.00 0.00 0.00 0.00 0.00 0.00 0.00 0.00 0.00 0.00 0.00 0.00 0.00 0.00 0.00 0.00 0.00 0.00
0.00 0.00 0.00 0.00 0.01 0.02 0.02 0.02 0.02 0.02 0.02 0.01 0.02 0.03 0.03 0.01 0.01 0.00 0.00 0.00 0.00 0.00 0.00 0.00 0.00 0.00 0.00 0.00 0.00 0.00 0.00 0.00 0.00 0.00 0.00 0.00 0.00 0.00 0.00 0.00 0.00 0.00 0.00 0.00
0.01 0.01 0.00 0.01 0.01 0.02 0.02 0.02 0.02 0.02 0.02 0.02 0.02 0.02 0.02 0.01 0.01 0.01 0.01 0.00 0.00 0.00 0.00 0.00 0.00 0.00 0.00 0.00 0.00 0.00 0.00 0.00 0.00 0.00 0.00 0.00 0.00 0.00 0.00 0.00 0.00 0.00 0.00 0.00
0.02 0.01 0.01 0.01 0.01 0.02 0.02 0.02 0.03 0.05 0.05 0.04 0.04 0.04 0.04 0.04 0.02 0.02 0.01 0.01 0.01 0.01 0.00 0.00 0.00 0.00 0.00 0.00 0.00 0.00 0.00 0.00 0.00 0.00 0.00 0.00 0.00 0.00 0.00 0.00 0.00 0.00 0.00 0.00
0.01 0.01 0.01 0.02 0.02 0.02 0.02 0.04 0.03 0.05 0.07 0.06 0.07 0.07 0.06 0.05 0.04 0.04 0.02 0.02 0.01 0.01 0.01 0.00 0.00 0.00 0.00 0.00 0.00 0.00 0.00 0.00 0.00 0.00 0.00 0.00 0.00 0.00 0.00 0.00 0.00 0.00 0.00 0.00
0.02 0.02 0.02 0.02 0.02 0.02 0.03 0.05 0.05 0.05 0.07 0.08 0.08 0.08 0.09 0.07 0.05 0.05 0.04 0.02 0.02 0.01 0.01 0.01 0.01 0.00 0.00 0.00 0.00 0.00 0.00 0.00 0.00 0.00 0.00 0.00 0.00 0.00 0.00 0.00 0.00 0.00 0.00 0.00
0.03 0.03 0.03 0.03 0.04 0.03 0.04 0.05 0.04 0.04 0.07 0.09 0.10 0.10 0.10 0.10 0.11 0.09 0.05 0.04 0.03 0.02 0.01 0.01 0.00 0.00 0.00 0.00 0.00 0.00 0.00 0.00 0.00 0.00 0.00 0.00 0.00 0.00 0.00 0.00 0.00 0.00 0.00 0.00
0.05 0.09 0.09 0.06 0.06 0.07 0.08 0.06 0.05 0.07 0.10 0.16 0.18 0.16 0.13 0.11 0.12 0.13 0.08 0.04 0.03 0.02 0.02 0.01 0.01 0.01 0.00 0.01 0.01 0.01 0.01 0.01 0.01 0.01 0.01 0.01 0.00 0.00 0.00 0.00 0.00 0.00 0.00 0.00
0.06 0.09 0.11 0.12 0.13 0.12 0.11 0.11 0.12 0.13 0.13 0.16 0.16 0.13 0.11 0.09 0.07 0.06 0.05 0.04 0.03 0.02 0.02 0.02 0.01 0.01 0.01 0.01 0.01 0.01 0.01 0.01 0.01 0.01 0.01 0.01 0.01 0.00 0.00 0.00 0.00 0.00 0.00 0.00
0.08 0.10 0.13 0.17 0.16 0.12 0.12 0.11 0.11 0.11 0.12 0.12 0.12 0.08 0.08 0.09 0.10 0.06 0.06 0.06 0.05 0.04 0.02 0.02 0.02 0.02 0.02 0.01 0.02 0.01 0.01 0.01 0.01 0.01 0.01 0.01 0.01 0.00 0.00 0.00 0.00 0.00 0.00 0.00
0.07 0.06 0.08 0.14 0.16 0.17 0.14 0.10 0.09 0.10 0.09 0.06 0.06 0.07 0.06 0.07 0.07 0.08 0.08 0.07 0.05 0.03 0.03 0.02 0.02 0.02 0.01 0.01 0.02 0.02 0.02 0.02 0.03 0.03 0.02 0.02 0.01 0.01 0.01 0.01 0.00 0.01 0.01 0.01
0.02 0.03 0.05 0.10 0.14 0.13 0.14 0.09 0.06 0.05 0.03 0.02 0.02 0.02 0.02 0.01 0.02 0.03 0.04 0.02 0.02 0.02 0.02 0.03 0.03 0.02 0.02 0.02 0.03 0.04 0.05 0.05 0.05 0.04 0.04 0.03 0.02 0.02 0.02 0.02 0.02 0.02 0.01 0.02
0.02 0.02 0.03 0.06 0.09 0.10 0.11 0.06 0.04 0.03 0.02 0.02 0.01 0.01 0.01 0.01 0.01 0.01 0.01 0.01 0.01 0.01 0.02 0.02 0.02 0.03 0.03 0.04 0.05 0.06 0.06 0.06 0.06 0.05 0.05 0.06 0.05 0.04 0.04 0.04 0.03 0.03 0.04 0.04
MSLP
1012.99 1013.45 1013.70 1013.78 1013.76 1013.73 1013.76 1013.89 1014.14 1014.50 1014.90 1015.30 1015.63 1015.84 1015.94 1015.91 1015.79 1015.63 1015.46 1015.31 1015.19 1015.10 1015.03 1014.96 1014.88 1014.80 1014.71 1014.66 1014.68 1014.78 1014.99 1015.29 1015.67 1016.10 1016.51 1016.89 1017.19 1017.40 1017.53 1017.59 1017.61 1017.62 1017.65 1017.72
1013.17 1013.54 1013.70 1013.72 1013.69 1013.69 1013.80 1014.05 1014.42 1014.87 1015.33 1015.70 1015.95 1016.05 1015.99 1015.82 1015.59 1015.38 1015.22 1015.15 1015.15 1015.21 1015.26 1015.29 1015.26 1015.18 1015.05 1014.93 1014.87 1014.91 1015.09 1015.39 1015.79 1016.25 1016.71 1017.11 1017.40 1017.58 1017.65 1017.63 1017.58 1017.54 1017.53 1017.59
1013.02 1013.29 1013.37 1013.36 1013.36 1013.47 1013.74 1014.18 1014.74 1015.34 1015.88 1016.27 1016.44 1016.40 1016.16 1015.81 1015.44 1015.12 1014.93 1014.89 1014.97 1015.14 1015.32 1015.45 1015.49 1015.43 1015.30 1015.15 1015.04 1015.05 1015.20 1015.50 1015.93 1016.42 1016.91 1017.33 1017.62 1017.77 1017.78 1017.70 1017.58 1017.47 1017.43 1017.47
1012.63 1012.78 1012.79 1012.78 1012.87 1013.14 1013.64 1014.33 1015.14 1015.94 1016.60 1017.02 1017.14 1016.95 1016.52 1015.95 1015.38 1014.91 1014.62 1014.54 1014.66 1014.90 1015.17 1015.40 1015.51 1015.50 1015.39 1015.24 1015.12 1015.11 1015.25 1015.57 1016.02 1016.54 1017.06 1017.50 1017.79 1017.93 1017.90 1017.77 1017.60 1017.44 1017.36 1017.38
1012.17 1012.18 1012.12 1012.13 1012.34 1012.81 1013.57 1014.56 1015.65 1016.68 1017.48 1017.95 1018.00 1017.67 1017.04 1016.23 1015.42 1014.75 1014.31 1014.15 1014.24 1014.51 1014.84 1015.14 1015.33 1015.37 1015.30 1015.17 1015.05 1015.04 1015.19 1015.52 1015.99 1016.54 1017.09 1017.56 1017.88 1018.01 1017.98 1017.83 1017.62 1017.43 1017.32 1017.31
1011.79 1011.66 1011.53 1011.57 1011.90 1012.58 1013.61 1014.89 1016.25 1017.49 1018.43 1018.93 1018.93 1018.46 1017.61 1016.56 1015.50 1014.61 1014.00 1013.72 1013.75 1014.01 1014.37 1014.72 1014.97 1015.07 1015.04 1014.94 1014.84 1014.84 1014.99 1015.33 1015.81 1016.39 1016.97 1017.47 1017.82 1017.98 1017.97 1017.83 1017.62 1017.42 1017.29 1017.26
1011.63 1011.35 1011.16 1011.23 1011.66 1012.52 1013.77 1015.28 1016.85 1018.26 1019.29 1019.81 1019.74 1019.12 1018.09 1016.81 1015.53 1014.43 1013.65 1013.24 1013.19 1013.42 1013.79 1014.18 1014.48 1014.64 1014.66 1014.59 1014.52 1014.53 1014.68 1015.02 1015.50 1016.09 1016.69 1017.22 1017.61 1017.82 1017.85 1017.74 1017.56 1017.38 1017.25 1017.21
1011.71 1011.31 1011.07 1011.14 1011.65 1012.62 1014.01 1015.66 1017.35 1018.83 1019.89 1020.38 1020.22 1019.48 1018.28 1016.83 1015.36 1014.10 1013.18 1012.68 1012.57 1012.77 1013.16 1013.58 1013.94 1014.15 1014.22 1014.20 1014.15 1014.17 1014.32 1014.64 1015.12 1015.70 1016.30 1016.85 1017.27 1017.52 1017.61 1017.55 1017.42 1017.27 1017.17 1017.13
1011.95 1011.48 1011.21 1011.28 1011.81 1012.83 1014.25 1015.92 1017.60 1019.06 1020.06 1020.46 1020.20 1019.34 1018.03 1016.46 1014.90 1013.55 1012.56 1012.02 1011.89 1012.09 1012.50 1012.98 1013.39 1013.67 1013.80 1013.83 1013.81 1013.84 1013.99 1014.29 1014.74 1015.29 1015.87 1016.41 1016.85 1017.13 1017.26 1017.27 1017.19 1017.09 1017.01 1017.00
1012.22 1011.74 1011.47 1011.55 1012.07 1013.04 1014.40 1015.97 1017.53 1018.84 1019.70 1019.97 1019.60 1018.65 1017.27 1015.67 1014.10 1012.75 1011.78 1011.25 1011.15 1011.40 1011.86 1012.40 1012.88 1013.23 1013.44 1013.53 1013.56 1013.61 1013.76 1014.03 1014.44 1014.94 1015.48 1015.99 1016.41 1016.70 1016.86 1016.90 1016.88 1016.82 1016.79 1016.80
1012.37 1011.96 1011.74 1011.83 1012.31 1013.18 1014.38 1015.76 1017.09 1018.18 1018.83 1018.93 1018.44 1017.44 1016.06 1014.51 1013.01 1011.75 1010.87 1010.43 1010.41 1010.73 1011.26 1011.86 1012.42 1012.86 1013.15 1013.31 1013.40 1013.49 1013.64 1013.89 1014.25 1014.69 1015.17 1015.62 1016.00 1016.28 1016.44 1016.50 1016.51 1016.49 1016.49 1016.53
1012.32 1012.05 1011.92 1012.04 1012.47 1013.22 1014.21 1015.33 1016.37 1017.18 1017.59 1017.51 1016.92 1015.90 1014.58 1013.14 1011.78 1010.68 1009.94 1009.63 1009.71 1010.11 1010.71 1011.38 1012.01 1012.52 1012.89 1013.14 1013.30 1013.43 1013.61 1013.85 1014.17 1014.55 1014.95 1015.33 1015.65 1015.88 1016.02 1016.09 1016.11 1016.12 1016.15 1016.22
1012.08 1011.99 1011.99 1012.17 1012.56 1013.17 1013.95 1014.78 1015.52 1016.03 1016.20 1015.96 1015.30 1014.30 1013.08 1011.79 1010.62 1009.70 1009.13 1008.95 1009.12 1009.58 1010.22 1010.93 1011.60 1012.17 1012.61 1012.93 1013.16 1013.36 1013.57 1013.82 1014.11 1014.44 1014.78 1015.09 1015.34 1015.52 1015.63 1015.69 1015.71 1015.74 1015.80 1015.89
1011.76 1011.88 1012.03 1012.27 1012.64 1013.13 1013.70 1014.26 1014.71 1014.96 1014.92 1014.54 1013.85 1012.91 1011.81 1010.71 1009.73 1008.99 1008.56 1008.48 1008.70 1009.17 1009.80 1010.49 1011.15 1011.73 1012.21 1012.59 1012.89 1013.16 1013.42 1013.69 1013.99 1014.29 1014.58 1014.84 1015.03 1015.17 1015.25 1015.30 1015.33 1015.38 1015.45 1015.56
1011.51 1011.82 1012.12 1012.43 1012.78 1013.17 1013.56 1013.90 1014.11 1014.14 1013.94 1013.48 1012.79 1011.93 1010.97 1010.04 1009.24 1008.64 1008.32 1008.27 1008.48 1008.89 1009.43 1010.03 1010.63 1011.17 1011.64 1012.05 1012.41 1012.74 1013.06 1013.38 1013.69 1014.00 1014.27 1014.50 1014.67 1014.79 1014.86 1014.91 1014.95 1015.02 1015.12 1015.25
1011.49 1011.94 1012.35 1012.72 1013.05 1013.35 1013.60 1013.76 1013.79 1013.67 1013.36 1012.87 1012.22 1011.45 1010.64 1009.86 1009.19 1008.69 1008.40 1008.32 1008.44 1008.72 1009.11 1009.55 1010.02 1010.47 1010.89 1011.29 1011.68 1012.06 1012.44 1012.81 1013.17 1013.51 1013.80 1014.03 1014.21 1014.34 1014.43 1014.50 1014.58 1014.67 1014.80 1014.94
1011.76 1012.30 1012.76 1013.14 1013.45 1013.67 1013.80 1013.83 1013.75 1013.53 1013.18 1012.69 1012.10 1011.44 1010.75 1010.10 1009.53 1009.07 1008.76 1008.59 1008.56 1008.64 1008.82 1009.06 1009.35 1009.66 1010.00 1010.35 1010.74 1011.15 1011.58 1012.01 1012.43 1012.81 1013.14 1013.42 1013.63 1013.80 1013.93 1014.05 1014.18 1014.31 1014.46 1014.62
1012.32 1012.86 1013.30 1013.65 1013.89 1014.04 1014.08 1014.02 1013.86 1013.60 1013.25 1012.81 1012.30 1011.74 1011.17 1010.61 1010.09 1009.64 1009.27 1008.98 1008.77 1008.64 1008.58 1008.60 1008.68 1008.83 1009.05 1009.35 1009.71 1010.13 1010.59 1011.06 1011.53 1011.97 1012.36 1012.69 1012.97 1013.19 1013.39 1013.56 1013.74 1013.91 1014.09 1014.26
1013.01 1013.47 1013.84 1014.10 1014.26 1014.32 1014.28 1014.16 1013.97 1013.71 1013.38 1013.01 1012.59 1012.14 1011.66 1011.19 1010.71 1010.25 1009.80 1009.39 1009.02 1008.69 1008.42 1008.23 1008.12 1008.11 1008.22 1008.43 1008.75 1009.15 1009.62 1010.12 1010.63 1011.11 1011.55 1011.94 1012.27 1012.55 1012.81 1013.04 1013.26 1013.46 1013.66 1013.82
1013.62 1013.95 1014.19 1014.33 1014.39 1014.36 1014.26 1014.10 1013.90 1013.66 1013.40 1013.10 1012.78 1012.43 1012.06 1011.65 1011.21 1010.75 1010.26 1009.77 1009.27 1008.80 1008.37 1008.02 1007.77 1007.64 1007.64 1007.77 1008.04 1008.41 1008.86 1009.36 1009.87 1010.37 1010.83 1011.25 1011.62 1011.94 1012.23 1012.50 1012.74 1012.95 1013.14 1013.28
1013.94 1014.12 1014.21 1014.22 1014.17 1014.06 1013.92 1013.75 1013.56 1013.37 1013.17 1012.97 1012.75 1012.51 1012.23 1011.90 1011.52 1011.09 1010.61 1010.08 1009.54 1009.00 1008.49 1008.06 1007.72 1007.51 1007.44 1007.51 1007.71 1008.03 1008.44 1008.90 1009.38 1009.86 1010.31 1010.72 1011.09 1011.42 1011.71 1011.97 1012.20 1012.39 1012.54 1012.64
1013.84 1013.87 1013.82 1013.71 1013.57 1013.41 1013.24 1013.08 1012.94 1012.82 1012.70 1012.60 1012.48 1012.35 1012.17 1011.94 1011.64 1011.28 1010.85 1010.36 1009.85 1009.32 1008.82 1008.38 1008.02 1007.78 1007.67 1007.69 1007.84 1008.10 1008.43 1008.83 1009.24 1009.66 1010.05 1010.41 1010.74 1011.02 1011.27 1011.49 1011.66 1011.79 1011.88 1011.91
1013.28 1013.18 1013.03 1012.84 1012.65 1012.47 1012.32 1012.20 1012.13 1012.09 1012.07 1012.07 1012.06 1012.03 1011.96 1011.83 1011.64 1011.38 1011.05 1010.66 1010.24 1009.80 1009.37 1008.98 1008.67 1008.44 1008.32 1008.31 1008.40 1008.57 1008.82 1009.12 1009.43 1009.75 1010.05 1010.32 1010.57 1010.77 1010.94 1011.06 1011.15 1011.19 1011.18 1011.12
1012.34 1012.17 1011.96 1011.74 1011.55 1011.39 1011.30 1011.26 1011.27 1011.33 1011.42 1011.52 1011.61 1011.69 1011.72 1011.70 1011.62 1011.48 1011.28 1011.03 1010.74 1010.42 1010.11 1009.83 1009.58 1009.40 1009.28 1009.24 1009.27 1009.36 1009.50 1009.68 1009.87 1010.07 1010.25 1010.41 1010.54 1010.64 1010.69 1010.71 1010.68 1010.60 1010.48 1010.32
1011.22 1011.01 1010.79 1010.59 1010.45 1010.36 1010.36 1010.42 1010.54 1010.71 1010.90 1011.10 1011.29 1011.45 1011.58 1011.65 1011.68 1011.66 1011.59 1011.48 1011.33 1011.16 1010.98 1010.80 1010.63 1010.49 1010.38 1010.31 1010.27 1010.28 1010.31 1010.37 1010.43 1010.50 1010.56 1010.60 1010.61 1010.59 1010.52 1010.41 1010.26 1010.06 1009.83 1009.56
1010.12 1009.93 1009.74 1009.61 1009.54 1009.56 1009.67 1009.85 1010.08 1010.36 1010.64 1010.93 1011.19 1011.42 1011.61 1011.76 1011.87 1011.95 1011.98 1011.99 1011.96 1011.91 1011.84 1011.75 1011.65 1011.53 1011.42 1011.32 1011.22 1011.13 1011.06 1011.00 1010.95 1010.91 1010.85 1010.78 1010.69 1010.56 1010.39 1010.17 1009.90 1009.58 1009.24 1008.88
Thickness
5796 5775 5761 5770 5774 5771 5767 5755 5748 5753 5761 5752 5740 5734 5733 5736 5733 5729 5726 5727 5729 5731 5733 5736 5738 5741 5742 5741 5742 5742 5740 5738 5737 5733 5730 5726 5723 5722 5720 5719 5717 5715 5713 5710
5775 5766 5786 5795 5790 5781 5770 5755 5749 5752 5760 5751 5738 5735 5737 5735 5732 5731 5730 5728 5728 5729 5730 5733 5735 5737 5739 5739 5740 5740 5739 5737 5736 5734 5730 5727 5724 5721 5719 5717 5714 5712 5710 5708
5769 5784 5804 5799 5786 5775 5768 5757 5753 5749 5751 5748 5737 5726 5730 5735 5737 5736 5735 5733 5733 5733 5733 5734 5735 5736 5737 5738 5739 5740 5738 5736 5735 5734 5730 5726 5722 5718 5715 5712 5711 5710 5708 5706
5783 5799 5801 5793 5783 5777 5757 5771 5767 5756 5736 5720 5726 5707 5725 5731 5731 5734 5736 5735 5736 5738 5737 5737 5738 5737 5739 5741 5741 5740 5738 5736 5735 5733 5729 5723 5717 5712 5711 5710 5709 5708 5706 5704
5781 5794 5792 5785 5787 5784 5769 5776 5764 5751 5732 5718 5720 5710 5717 5730 5727 5733 5738 5741 5742 5743 5743 5742 5743 5743 5743 5744 5742 5740 5737 5735 5734 5732 5728 5722 5716 5713 5711 5709 5707 5705 5704 5702
5792 5803 5800 5796 5799 5793 5780 5763 5748 5734 5722 5703 5712 5711 5715 5728 5736 5740 5744 5747 5748 5748 5748 5747 5747 5746 5745 5745 5743 5740 5737 5734 5733 5730 5726 5722 5717 5712 5709 5707 5705 5703 5701 5700
5776 5787 5800 5803 5786 5780 5771 5741 5715 5709 5696 5698 5717 5717 5722 5750 5757 5754 5752 5753 5754 5753 5751 5748 5747 5746 5745 5744 5743 5741 5737 5733 5731 5729 5725 5721 5717 5713 5710 5707 5704 5701 5698 5696
5751 5755 5785 5794 5784 5769 5764 5747 5716 5702 5694 5699 5716 5714 5736 5763 5768 5767 5764 5761 5759 5756 5755 5754 5753 5751 5749 5747 5745 5741 5737 5734 5731 5728 5724 5721 5717 5713 5710 5707 5703 5700 5697 5695
5748 5754 5790 5797 5797 5784 5763 5749 5744 5717 5704 5696 5706 5720 5745 5766 5763 5763 5762 5761 5759 5760 5760 5758 5757 5754 5752 5750 5747 5744 5738 5734 5731 5727 5724 5720 5717 5713 5710 5707 5704 5700 5697 5695
5764 5754 5775 5788 5788 5780 5771 5758 5732 5713 5693 5689 5701 5710 5723 5748 5752 5758 5760 5761 5762 5763 5762 5761 5759 5758 5755 5753 5749 5745 5740 5736 5732 5728 5724 5721 5717 5714 5710 5706 5703 5699 5696 5693
5772 5753 5759 5766 5761 5758 5758 5749 5734 5716 5709 5693 5690 5710 5752 5753 5757 5759 5762 5766 5766 5765 5764 5763 5762 5760 5756 5752 5747 5743 5739 5735 5731 5727 5723 5720 5716 5713 5709 5705 5702 5698 5695 5691
5772 5749 5738 5751 5765 5771 5763 5752 5736 5715 5711 5706 5699 5718 5773 5770 5770 5768 5769 5772 5772 5770 5769 5766 5763 5758 5754 5749 5746 5742 5739 5735 5731 5727 5723 5719 5715 5712 5708 5704 5700 5697 5693 5689
5769 5743 5722 5725 5736 5752 5752 5752 5743 5726 5712 5703 5699 5724 5773 5773 5772 5773 5773 5774 5773 5770 5766 5763 5760 5756 5753 5749 5745 5742 5739 5735 5731 5727 5722 5717 5713 5709 5706 5702 5698 5695 5690 5686
5773 5743 5728 5718 5723 5739 5742 5749 5747 5728 5709 5708 5718 5734 5757 5762 5765 5770 5772 5773 5771 5768 5765 5761 5757 5754 5752 5749 5746 5742 5738 5735 5731 5726 5720 5715 5712 5708 5705 5701 5696 5692 5687 5683
5764 5743 5744 5744 5750 5748 5745 5748 5748 5738 5731 5722 5731 5739 5751 5758 5763 5767 5770 5768 5767 5764 5762 5760 5756 5751 5749 5746 5743 5741 5738 5734 5730 5724 5719 5715 5711 5707 5703 5698 5693 5689 5684 5680
5753 5742 5743 5741 5749 5746 5743 5748 5748 5745 5741 5738 5739 5741 5757 5763 5763 5762 5762 5764 5763 5762 5762 5760 5756 5752 5749 5747 5743 5740 5736 5733 5728 5723 5718 5714 5709 5704 5700 5695 5691 5686 5681 5676
5740 5733 5725 5719 5735 5735 5724 5738 5741 5736 5735 5735 5727 5735 5751 5751 5754 5754 5757 5760 5760 5761 5761 5760 5757 5755 5752 5749 5746 5740 5737 5732 5726 5721 5717 5712 5707 5701 5697 5693 5687 5682 5677 5672
5733 5723 5713 5709 5716 5705 5723 5744 5745 5733 5726 5732 5734 5737 5742 5746 5750 5754 5757 5756 5757 5758 5759 5758 5757 5755 5753 5751 5746 5742 5736 5729 5724 5719 5714 5710 5704 5699 5694 5688 5683 5678 5673 5668
5736 5720 5705 5697 5697 5707 5725 5735 5735 5725 5715 5724 5726 5731 5736 5742 5744 5742 5749 5752 5755 5757 5758 5759 5759 5756 5752 5747 5744 5737 5731 5726 5720 5715 5711 5707 5702 5696 5690 5684 5679 5675 5669 5664
5727 5719 5702 5693 5691 5692 5714 5732 5740 5727 5705 5721 5724 5723 5726 5728 5714 5719 5737 5743 5749 5752 5753 5754 5754 5751 5746 5744 5740 5732 5726 5720 5717 5715 5710 5706 5699 5693 5687 5681 5676 5671 5665 5660
5708 5702 5695 5689 5686 5698 5720 5729 5730 5704 5704 5718 5720 5719 5718 5713 5710 5716 5727 5734 5738 5741 5744 5745 5744 5741 5740 5738 5733 5726 5721 5718 5717 5713 5707 5701 5695 5689 5684 5677 5672 5666 5660 5654
5699 5691 5687 5683 5679 5689 5718 5718 5711 5709 5716 5717 5717 5718 5715 5710 5711 5713 5718 5722 5725 5728 5730 5732 5730 5729 5730 5728 5724 5718 5714 5715 5710 5704 5699 5694 5689 5684 5678 5670 5664 5659 5653 5647
5703 5702 5696 5692 5693 5708 5714 5715 5717 5715 5711 5714 5714 5715 5713 5707 5703 5703 5705 5706 5710 5713 5714 5716 5716 5715 5715 5713 5711 5707 5706 5703 5698 5693 5689 5684 5680 5674 5669 5663 5657 5651 5645 5640
5707 5708 5696 5691 5698 5705 5710 5712 5712 5711 5710 5712 5711 5709 5705 5698 5695 5694 5695 5696 5697 5699 5699 5701 5701 5700 5698 5697 5697 5694 5693 5690 5686 5680 5676 5672 5667 5663 5659 5654 5649 5644 5638 5633
5706 5701 5690 5686 5693 5697 5700 5704 5706 5705 5704 5704 5703 5700 5695 5691 5688 5687 5685 5684 5684 5685 5685 5686 5684 5682 5682 5682 5681 5680 5679 5675 5670 5665 5661 5657 5654 5650 5646 5643 5640 5637 5635 5630
5706 5702 5693 5689 5694 5690 5692 5698 5699 5696 5693 5693 5691 5687 5685 5683 5679 5676 5674 5672 5672 5671 5671 5670 5668 5666 5665 5665 5663 5662 5661 5659 5654 5649 5645 5642 5639 5636 5633 5631 5630 5630 5627 5625